TimeCST,TemperatureF,Dew PointF,Humidity,Sea Level PressureIn,VisibilityMPH,Wind Direction,Wind SpeedMPH,Gust SpeedMPH,PrecipitationIn,Events,Conditions,WindDirDegrees,DateUTC
12:44 AM,30.0,24.1,79,30.12,10.0,NE,16.1,-,N/A,,Mostly Cloudy,40,2014-02-23 06:44:00
12:53 AM,30.0,24.1,79,30.16,10.0,ENE,13.8,-,N/A,,Overcast,60,2014-02-23 06:53:00
1:53 AM,28.9,24.1,82,30.18,10.0,NE,17.3,-,N/A,,Overcast,50,2014-02-23 07:53:00
2:11 AM,28.0,24.1,85,30.15,10.0,NE,17.3,-,N/A,,Overcast,50,2014-02-23 08:11:00
2:34 AM,28.0,23.0,81,30.15,10.0,NE,19.6,-,N/A,,Overcast,50,2014-02-23 08:34:00
2:53 AM,27.0,21.9,81,30.19,10.0,ENE,12.7,-,N/A,,Overcast,60,2014-02-23 08:53:00
3:43 AM,26.1,21.0,81,30.15,10.0,ENE,17.3,-,N/A,,Overcast,60,2014-02-23 09:43:00
3:53 AM,26.1,21.9,84,30.19,10.0,NE,16.1,-,N/A,,Overcast,50,2014-02-23 09:53:00
4:30 AM,26.1,21.0,81,30.16,10.0,ENE,12.7,-,N/A,,Overcast,70,2014-02-23 10:30:00
4:53 AM,26.1,21.9,84,30.21,10.0,NE,12.7,-,N/A,,Overcast,50,2014-02-23 10:53:00
5:03 AM,25.0,21.0,85,30.17,10.0,NE,9.2,-,N/A,,Overcast,50,2014-02-23 11:03:00
5:12 AM,25.0,21.0,85,30.17,10.0,NE,13.8,-,N/A,,Overcast,50,2014-02-23 11:12:00
5:48 AM,24.8,19.4,80,30.19,10.0,ENE,11.5,-,N/A,,Overcast,60,2014-02-23 11:48:00
5:53 AM,25.0,19.9,81,30.24,10.0,ENE,12.7,-,N/A,,Overcast,60,2014-02-23 11:53:00
6:10 AM,24.1,19.0,81,30.20,10.0,ENE,10.4,-,N/A,,Overcast,60,2014-02-23 12:10:00
6:53 AM,24.1,19.0,81,30.29,10.0,NE,10.4,-,N/A,,Overcast,50,2014-02-23 12:53:00
7:09 AM,24.1,19.0,81,30.23,10.0,NE,12.7,-,N/A,,Overcast,40,2014-02-23 13:09:00
7:53 AM,24.1,19.0,81,30.32,10.0,NE,9.2,-,N/A,,Overcast,40,2014-02-23 13:53:00
8:06 AM,24.1,19.0,81,30.27,10.0,NE,11.5,-,N/A,,Overcast,40,2014-02-23 14:06:00
8:43 AM,24.1,19.0,81,30.29,10.0,NNE,11.5,-,N/A,,Overcast,30,2014-02-23 14:43:00
8:53 AM,24.1,19.0,81,30.36,10.0,NNE,11.5,-,N/A,,Overcast,30,2014-02-23 14:53:00
9:27 AM,24.1,17.1,75,30.30,10.0,NE,15.0,-,N/A,,Overcast,40,2014-02-23 15:27:00
9:53 AM,24.1,18.0,77,30.37,10.0,NE,13.8,-,N/A,,Overcast,50,2014-02-23 15:53:00
10:53 AM,25.0,18.0,75,30.37,10.0,ENE,10.4,-,N/A,,Overcast,70,2014-02-23 16:53:00
11:08 AM,26.1,18.0,71,30.31,10.0,ENE,9.2,-,N/A,,Overcast,70,2014-02-23 17:08:00
11:17 AM,26.1,18.0,71,30.31,10.0,NE,9.2,-,N/A,,Overcast,50,2014-02-23 17:17:00
11:53 AM,26.1,17.1,69,30.38,10.0,ENE,11.5,-,N/A,,Overcast,70,2014-02-23 17:53:00
12:53 PM,26.1,17.1,69,30.37,10.0,East,8.1,-,N/A,,Overcast,80,2014-02-23 18:53:00
1:53 PM,27.0,18.0,69,30.35,10.0,East,8.1,-,N/A,,Overcast,90,2014-02-23 19:53:00
2:29 PM,28.0,17.1,63,30.26,10.0,East,10.4,-,N/A,,Overcast,80,2014-02-23 20:29:00
2:50 PM,28.4,17.6,64,30.27,10.0,ENE,6.9,-,N/A,,Overcast,70,2014-02-23 20:50:00
2:53 PM,27.0,18.0,69,30.34,10.0,East,12.7,-,N/A,,Overcast,80,2014-02-23 20:53:00
3:53 PM,27.0,17.1,66,30.34,10.0,ENE,9.2,-,N/A,,Overcast,70,2014-02-23 21:53:00
4:53 PM,26.1,17.1,69,30.34,10.0,ENE,10.4,-,N/A,,Overcast,70,2014-02-23 22:53:00
5:25 PM,25.0,16.0,69,30.25,10.0,East,11.5,-,N/A,,Overcast,90,2014-02-23 23:25:00
5:53 PM,25.0,16.0,69,30.34,10.0,East,9.2,-,N/A,,Overcast,80,2014-02-23 23:53:00
6:53 PM,24.1,14.0,65,30.36,10.0,East,9.2,-,N/A,,Overcast,80,2014-02-24 00:53:00
7:53 PM,24.1,15.1,69,30.37,10.0,East,8.1,-,N/A,,Overcast,90,2014-02-24 01:53:00
8:53 PM,24.1,14.0,65,30.38,10.0,East,5.8,-,N/A,,Overcast,90,2014-02-24 02:53:00
9:53 PM,23.0,14.0,68,30.38,10.0,ENE,8.1,-,N/A,,Overcast,70,2014-02-24 03:53:00
10:53 PM,23.0,14.0,68,30.37,10.0,East,9.2,-,N/A,,Overcast,80,2014-02-24 04:53:00
11:13 PM,23.0,14.0,68,30.27,10.0,East,8.1,-,N/A,,Overcast,90,2014-02-24 05:13:00
11:34 PM,23.0,14.0,68,30.28,10.0,East,6.9,-,N/A,,Overcast,100,2014-02-24 05:34:00
11:53 PM,23.0,14.0,68,30.37,10.0,East,6.9,-,N/A,,Overcast,80,2014-02-24 05:53:00